Wetbulb
53.35 53.17 52.90 52.73 52.54 52.61 52.73 52.71 52.80 52.94 52.88 52.86 53.32 53.61 54.10 54.55 54.27 51.31 47.62 50.07 49.13 45.61 47.12 50.43 51.09 46.49 46.79 44.48 42.10 47.28 49.01 49.91 50.36 47.59 45.24 43.60 42.08 44.35 43.78 44.73 46.75 43.67 41.76 42.75 43.28 41.39 41.81 54.77 54.12 50.05 52.92 55.10 60.46 61.10
53.01 53.03 52.86 52.59 52.36 52.32 52.53 52.68 53.01 53.07 53.08 52.73 52.90 53.42 53.83 53.97 53.86 52.56 46.52 50.51 51.85 47.93 48.01 51.77 53.97 54.35 52.33 51.82 46.22 44.66 47.49 47.00 50.94 47.62 47.69 47.84 47.00 46.53 43.54 41.89 46.74 43.81 46.40 46.08 45.93 45.75 51.48 53.26 51.83 54.42 55.19 56.68 59.90 61.71
52.95 52.74 52.72 52.68 52.68 52.54 52.64 52.61 52.92 53.02 52.90 52.73 52.63 53.21 53.58 53.85 53.32 51.89 46.37 48.26 48.93 47.02 47.80 46.91 49.37 53.40 53.86 53.86 52.43 42.95 42.80 48.53 48.06 51.39 48.55 48.01 45.26 45.70 41.56 42.83 44.33 47.58 49.67 46.56 47.42 49.56 52.17 53.96 55.30 57.27 61.39 61.39 62.21 63.33
53.03 52.81 52.58 52.64 52.50 52.44 52.56 52.74 52.82 52.74 52.86 52.77 52.63 52.88 53.60 53.46 52.94 52.34 45.28 48.15 48.42 47.80 43.75 46.18 54.04 50.06 54.05 50.91 51.75 48.09 47.41 49.38 49.05 49.61 46.40 45.04 44.61 47.62 44.10 45.33 44.90 48.35 48.78 47.43 46.85 50.06 52.83 54.89 55.45 59.47 61.29 62.21 61.80 62.36
53.29 52.81 52.42 52.42 52.52 52.50 52.58 52.54 52.48 52.51 52.67 52.57 52.65 52.69 52.76 52.91 52.23 50.61 47.83 48.98 51.21 48.24 42.15 43.59 49.99 52.18 52.15 51.11 51.20 51.37 50.12 48.12 46.56 45.29 43.46 42.91 45.36 45.48 44.62 44.07 44.01 48.44 46.53 43.91 43.58 48.56 51.38 52.27 56.85 59.67 58.09 56.89 56.57 56.30
53.45 53.09 52.69 52.55 52.38 52.61 52.60 52.35 52.31 52.33 52.35 52.24 52.05 52.07 51.87 52.06 51.81 48.07 49.72 52.81 51.54 52.19 44.55 40.12 46.57 49.74 52.24 52.99 52.78 50.39 50.90 49.31 48.49 45.79 44.60 45.86 47.38 45.65 40.51 40.40 46.27 48.80 49.47 48.91 51.45 53.65 53.01 55.56 56.81 57.14 54.69 54.91 55.16 54.79
53.20 52.95 52.95 52.98 52.55 52.55 52.46 52.18 52.09 52.09 51.90 51.65 51.35 51.28 51.31 51.29 47.42 46.75 48.38 51.82 50.93 50.79 46.97 43.40 43.53 48.99 52.96 52.01 51.17 50.25 50.11 49.22 48.47 45.83 46.01 45.99 47.15 46.92 42.10 40.49 47.18 49.10 49.66 51.86 55.15 54.92 54.03 55.11 53.80 55.47 55.17 54.80 54.58 54.51
52.79 52.99 53.11 53.09 52.86 52.60 52.37 52.23 52.08 51.74 51.46 51.29 51.05 51.32 51.41 51.09 49.81 48.92 51.50 52.38 50.66 48.39 47.89 42.29 42.72 46.48 53.53 47.76 46.07 50.10 48.64 47.70 47.31 45.94 45.81 44.66 46.02 44.49 40.89 44.60 47.58 50.20 50.89 51.00 51.62 53.60 54.52 53.98 54.25 54.03 54.27 54.22 53.01 52.49
52.26 52.45 52.85 52.79 52.75 52.56 52.46 52.19 52.02 51.56 50.91 50.77 51.30 51.83 50.98 49.96 49.05 52.10 57.23 54.81 51.83 48.64 43.98 45.27 41.89 39.12 49.96 46.92 47.34 48.77 48.56 44.60 48.41 45.14 44.89 45.88 43.09 40.77 44.92 47.01 48.66 49.70 49.22 48.85 52.91 53.50 54.29 53.16 51.88 51.90 52.41 52.48 51.92 51.53
51.83 52.23 52.45 52.59 52.67 52.41 52.23 52.19 51.92 50.87 50.40 51.17 51.18 50.62 48.86 51.18 56.45 54.66 50.42 48.75 48.92 48.62 46.59 43.13 44.81 43.28 47.22 45.13 44.70 44.66 45.76 43.68 41.01 44.74 48.60 44.78 41.98 48.33 50.04 49.27 49.20 50.95 51.25 51.20 52.52 50.88 50.61 50.38 50.99 51.52 51.89 52.67 54.15 54.09
51.83 51.98 52.12 52.18 51.94 51.94 52.01 51.99 51.56 50.67 49.66 44.67 41.97 44.54 46.95 52.16 49.88 48.37 45.82 45.68 46.61 44.02 46.36 46.18 47.50 44.20 49.61 43.68 42.22 45.40 42.28 42.88 38.69 41.76 43.27 41.85 41.52 47.76 51.57 51.05 51.58 52.23 53.43 53.62 53.35 53.19 53.08 52.82 52.62 52.64 53.17 53.75 54.73 53.52
51.79 51.67 51.63 51.70 51.68 51.76 51.79 51.71 51.12 47.63 44.80 43.89 44.33 45.88 45.61 48.48 46.59 44.29 43.94 45.68 45.97 42.65 48.05 46.84 47.64 47.93 48.67 47.89 43.86 44.57 41.52 42.82 38.46 46.10 43.02 41.16 45.74 49.77 50.25 53.15 53.15 53.31 54.07 54.44 54.34 53.51 54.15 54.40 54.56 54.31 54.19 54.70 55.19 54.75
51.33 51.29 51.16 51.25 51.33 51.44 51.55 51.59 51.26 51.18 49.64 47.31 44.98 45.37 46.73 45.83 37.75 41.34 40.61 41.19 41.50 45.55 47.25 47.34 45.90 47.84 49.07 47.82 43.97 43.09 39.74 38.55 45.26 40.62 40.41 44.98 47.95 49.08 50.95 53.10 53.93 53.87 54.18 54.15 53.72 53.77 53.81 53.68 54.35 53.74 54.82 55.59 56.36 55.70
51.19 50.92 50.81 50.98 51.24 51.59 51.41 51.43 51.62 49.16 45.44 44.91 45.53 36.49 42.16 40.92 42.45 43.04 43.17 43.67 46.09 47.27 48.23 47.27 46.11 46.06 47.27 45.26 45.43 41.93 43.38 44.25 39.57 38.32 42.23 46.30 48.37 49.88 52.04 53.45 53.81 53.06 53.41 52.26 52.04 52.44 52.44 52.48 52.11 52.85 54.92 55.64 55.10 53.69
50.94 50.71 50.95 51.06 51.46 52.05 51.70 51.43 50.62 46.82 46.01 45.28 45.38 36.14 41.83 45.37 46.93 48.25 50.53 49.78 47.95 48.43 46.53 46.64 46.70 46.73 45.04 44.20 44.42 43.99 42.50 40.05 42.04 41.69 45.08 47.90 49.52 51.42 51.36 53.30 53.97 53.17 52.43 51.89 51.61 51.82 51.85 52.09 52.04 52.35 53.72 53.77 52.79 52.50
50.67 50.86 50.22 51.32 51.42 50.48 49.91 49.09 47.79 47.71 48.25 46.66 45.41 42.67 45.43 45.83 47.21 47.35 46.00 46.34 48.94 47.51 49.59 47.60 44.13 43.08 41.88 43.54 43.11 43.34 41.80 40.66 43.22 47.34 46.52 46.43 47.93 49.17 50.66 53.00 54.68 54.81 53.38 52.71 52.25 52.41 53.48 53.60 53.16 53.11 53.56 53.39 52.99 52.31
50.05 47.81 50.37 51.13 50.81 50.28 50.19 46.91 48.50 47.60 46.01 44.64 42.29 44.51 43.94 44.06 43.98 45.75 48.71 47.22 49.40 46.81 43.23 45.29 41.54 41.10 45.55 41.22 41.94 44.31 41.65 43.29 45.50 46.75 46.86 46.16 45.47 45.99 49.27 51.48 52.85 52.83 52.36 52.19 51.19 50.94 50.87 51.73 50.68 50.72 52.19 53.19 53.54 53.42
47.66 49.91 51.07 51.04 50.15 49.41 49.37 47.52 47.40 46.66 43.39 44.28 41.84 43.60 45.37 46.81 46.90 48.14 50.84 48.92 49.02 47.04 45.82 46.20 45.49 40.69 39.48 40.72 40.41 43.69 45.76 46.39 47.42 47.94 47.22 47.93 47.54 47.41 50.08 50.09 52.19 52.64 52.06 51.96 51.46 51.02 50.31 48.66 46.90 46.40 50.23 52.73 52.73 52.34
49.79 50.13 50.21 50.49 50.29 46.57 46.33 48.58 48.71 42.94 44.13 44.76 45.68 46.41 46.80 47.03 48.75 51.77 50.15 50.65 49.42 48.78 47.92 46.69 42.26 41.32 42.01 44.64 45.50 45.20 45.58 47.45 48.66 47.31 46.89 47.72 49.19 50.52 51.25 50.68 51.04 50.37 51.13 51.32 51.40 52.58 51.17 50.19 49.17 49.10 52.04 51.23 50.18 50.40
49.99 50.05 50.10 50.37 50.28 46.34 45.45 46.27 49.93 45.01 42.82 44.73 46.09 45.58 46.07 46.28 47.92 47.97 48.10 47.66 46.23 47.60 47.73 43.96 43.43 44.66 46.80 48.39 48.20 47.34 48.92 50.43 47.93 48.46 48.95 47.40 49.49 50.74 49.74 49.60 49.82 49.58 51.27 51.06 50.87 49.87 50.32 50.38 50.83 51.17 51.84 52.39 50.13 48.95
48.88 49.72 50.66 49.95 47.56 46.54 45.85 44.96 45.76 46.33 45.55 44.50 46.24 45.74 45.03 46.79 46.00 45.51 45.74 47.23 46.44 44.79 43.67 45.89 48.17 50.60 50.71 50.90 50.73 49.92 49.58 48.65 47.30 47.30 46.35 46.01 48.40 49.35 48.83 49.88 50.67 50.89 49.97 50.77 50.14 49.81 49.76 51.51 48.57 49.87 49.21 47.28 48.86 49.31
48.96 51.48 49.49 49.02 46.84 47.62 45.42 46.77 44.58 45.97 43.70 44.43 44.45 45.09 43.35 43.63 44.49 45.96 48.81 46.61 45.84 46.91 48.41 50.31 50.64 50.85 50.35 49.52 50.02 49.98 49.46 50.90 49.55 45.83 47.76 47.50 46.66 47.01 47.68 48.60 49.91 48.66 52.06 49.57 48.84 48.08 49.57 50.34 49.51 49.12 49.50 49.41 49.53 49.25
49.42 49.01 47.36 48.48 45.66 42.60 39.78 46.88 42.58 44.52 41.72 42.98 45.64 44.11 43.69 43.62 46.03 50.66 48.47 47.40 47.84 50.24 53.41 52.90 52.27 52.77 50.89 50.47 50.13 50.40 50.91 50.56 49.38 49.28 47.42 48.43 49.34 49.07 49.16 48.64 49.25 47.77 47.10 47.87 48.90 48.95 48.78 47.78 48.93 49.18 48.70 49.16 49.03 49.20
49.29 45.47 44.37 43.57 42.78 38.25 43.98 43.18 45.70 43.05 43.48 42.13 42.36 42.30 45.12 46.84 50.30 49.11 44.96 48.24 51.42 52.93 52.42 52.38 53.20 51.32 49.52 49.69 48.70 49.45 50.43 50.30 47.70 47.72 49.36 48.42 47.54 48.14 49.96 49.68 49.40 49.59 49.89 48.79 48.97 48.93 48.99 49.25 47.57 49.08 49.35 48.89 48.73 48.86
40.31 39.43 40.21 34.84 42.35 42.31 41.14 41.16 41.69 41.51 40.90 42.54 42.07 42.38 45.78 47.98 44.25 44.49 45.75 47.50 49.62 50.76 51.67 52.12 52.16 49.41 48.02 48.72 49.29 50.31 52.14 50.48 48.40 47.70 49.17 50.03 48.92 47.74 48.99 50.05 49.42 49.75 49.95 49.92 49.16 49.31 49.36 50.22 50.15 50.43 50.65 49.51 49.16 49.44
35.67 41.14 37.42 40.92 40.44 40.51 40.75 40.10 42.08 42.26 42.11 43.09 42.97 46.57 47.23 46.54 44.89 43.63 46.77 49.24 49.90 50.64 51.78 52.32 52.33 49.87 48.51 48.75 48.43 49.40 51.03 51.36 50.05 48.90 49.70 50.84 50.43 47.60 47.04 46.81 47.15 47.98 50.77 50.92 50.00 50.43 50.54 50.26 50.82 51.05 49.92 49.85 46.34 49.18
36.92 39.34 41.89 44.90 43.50 43.39 41.54 42.51 44.12 43.16 42.47 44.38 43.81 44.47 43.90 42.31 43.56 46.71 51.30 51.91 51.53 52.97 54.62 54.78 51.99 50.81 49.99 51.03 51.46 51.00 51.77 51.84 52.04 51.94 52.47 51.65 52.56 51.37 50.29 49.08 48.53 49.41 49.95 51.92 51.88 51.77 51.28 51.98 51.26 50.05 50.24 50.09 49.89 49.63
41.48 42.37 38.96 41.81 41.10 42.20 40.25 40.95 40.34 40.48 41.96 43.91 45.20 44.67 45.17 45.90 44.96 50.84 53.54 54.48 56.19 55.35 54.74 54.65 53.07 50.87 49.92 52.25 53.68 52.47 51.71 51.68 52.47 52.01 51.56 50.65 50.56 51.78 50.83 51.00 51.97 47.00 48.67 49.76 51.74 51.10 49.79 49.29 48.79 49.61 50.10 49.90 50.52 51.30
40.89 43.28 42.38 39.90 41.55 42.56 43.15 42.13 41.19 42.48 46.74 44.65 43.22 46.18 47.33 51.76 53.57 51.50 53.15 54.65 54.92 54.85 52.24 50.09 49.28 49.66 48.92 49.45 51.21 52.69 52.07 50.98 50.03 48.68 48.65 48.31 48.57 50.79 49.61 49.14 48.22 48.44 48.39 48.41 44.74 47.95 50.18 49.39 49.99 50.22 50.08 49.03 49.09 49.27
40.27 42.72 40.10 40.93 40.04 40.09 41.41 43.16 42.60 45.76 47.72 46.87 48.01 48.17 48.34 50.60 53.62 55.05 53.95 54.10 52.48 52.00 52.34 52.94 53.59 52.55 51.01 47.22 47.54 48.97 50.82 51.52 53.12 51.69 50.06 49.54 50.83 51.81 51.03 49.48 49.20 49.68 49.67 48.88 48.16 47.53 44.58 47.28 46.83 48.16 48.08 47.86 47.21 47.27
43.19 41.85 40.34 40.80 41.67 42.34 44.27 45.91 46.95 47.27 48.09 47.29 48.30 47.26 47.43 48.45 50.08 52.76 54.06 53.96 53.09 53.05 52.89 53.73 54.22 54.13 53.35 52.25 51.99 50.15 50.63 52.37 52.70 53.80 54.50 55.05 53.24 52.90 54.53 53.34 52.35 51.45 50.25 49.53 49.22 48.23 48.02 48.38 48.52 48.24 48.55 48.65 49.40 48.37
42.22 40.60 41.68 39.12 40.14 44.30 45.87 44.71 44.42 43.88 45.24 44.85 45.71 46.06 46.04 45.56 44.54 47.72 50.61 51.15 50.80 50.56 50.33 51.00 50.67 52.85 56.23 56.56 55.80 53.62 50.93 54.41 54.25 55.40 54.03 52.16 52.38 54.89 55.13 53.32 52.65 53.03 52.30 50.96 50.61 50.07 49.57 49.46 48.85 49.10 49.16 50.43 49.74 50.21
41.40 41.42 40.98 40.89 40.71 41.50 44.06 44.52 44.38 43.82 45.14 44.73 45.04 46.50 46.68 45.43 44.29 48.22 51.54 52.30 52.21 51.87 51.60 51.84 52.45 52.98 52.92 54.41 54.98 54.80 52.70 56.08 53.92 48.40 48.02 48.42 48.31 49.61 52.04 52.18 52.31 53.41 53.14 51.87 52.20 52.94 51.76 50.40 50.52 50.01 49.64 49.94 52.06 52.29
MSLP
1026.16 1025.87 1025.53 1025.14 1024.71 1024.33 1023.96 1023.53 1023.10 1022.61 1022.04 1021.47 1020.92 1020.36 1019.79 1019.24 1018.71 1018.38 1017.28 1016.44 1016.65 1016.19 1013.73 1012.12 1011.26 1011.02 1010.89 1010.56 1010.28 1009.03 1008.10 1007.89 1007.84 1008.19 1008.52 1008.28 1007.84 1006.88 1006.72 1006.49 1006.51 1006.99 1007.56 1008.00 1008.04 1007.64 1006.97 1005.55 1005.08 1005.21 1005.28 1005.54 1005.96 1006.15
1025.94 1025.66 1025.35 1024.99 1024.57 1024.17 1023.79 1023.40 1022.96 1022.45 1021.91 1021.36 1020.82 1020.28 1019.76 1019.35 1018.91 1018.48 1018.00 1016.25 1016.18 1016.29 1013.38 1011.52 1010.71 1010.11 1010.29 1009.69 1010.19 1009.71 1009.73 1009.40 1009.04 1009.23 1009.41 1009.06 1008.57 1007.94 1008.00 1007.75 1006.79 1007.16 1007.33 1007.64 1007.94 1007.42 1006.59 1006.05 1005.28 1004.97 1005.00 1005.57 1006.50 1006.70
1025.72 1025.44 1025.14 1024.79 1024.41 1024.00 1023.61 1023.17 1022.68 1022.16 1021.62 1021.09 1020.55 1020.00 1019.50 1019.14 1018.89 1018.71 1018.33 1017.30 1016.36 1015.79 1013.28 1011.52 1009.75 1008.22 1007.48 1008.32 1008.50 1009.66 1009.48 1008.96 1008.90 1009.01 1009.56 1009.64 1009.48 1008.93 1009.04 1008.65 1007.88 1007.14 1006.85 1007.32 1007.72 1007.05 1006.44 1006.32 1005.78 1005.39 1005.51 1005.91 1006.47 1006.83
1025.46 1025.18 1024.86 1024.55 1024.21 1023.84 1023.42 1022.98 1022.48 1021.93 1021.35 1020.80 1020.25 1019.65 1019.10 1018.69 1018.48 1018.40 1018.28 1017.29 1017.24 1016.49 1015.25 1011.71 1009.35 1008.52 1007.69 1007.60 1007.86 1008.22 1008.26 1008.42 1008.77 1009.05 1009.79 1010.09 1010.12 1009.12 1009.13 1008.57 1008.45 1007.76 1007.12 1007.28 1007.11 1006.53 1006.63 1006.25 1005.92 1005.95 1006.13 1006.58 1006.74 1007.48
1025.17 1024.88 1024.60 1024.29 1023.96 1023.59 1023.16 1022.70 1022.20 1021.61 1020.99 1020.40 1019.83 1019.27 1018.71 1018.20 1017.84 1017.57 1017.50 1016.70 1016.34 1016.82 1015.94 1013.23 1010.81 1008.59 1007.74 1007.15 1007.20 1007.41 1007.95 1008.49 1009.23 1009.85 1010.41 1010.43 1009.63 1009.39 1009.19 1008.98 1008.58 1007.64 1007.21 1007.13 1006.66 1006.13 1005.85 1005.82 1005.92 1006.20 1006.45 1006.90 1007.26 1007.81
1024.77 1024.55 1024.28 1023.97 1023.65 1023.28 1022.84 1022.33 1021.76 1021.13 1020.47 1019.86 1019.26 1018.70 1018.25 1017.95 1017.54 1017.16 1016.90 1016.21 1015.93 1015.96 1015.95 1014.52 1011.46 1009.34 1008.08 1007.37 1007.42 1007.62 1007.98 1008.41 1009.25 1010.03 1010.17 1009.78 1008.93 1009.15 1009.70 1009.71 1008.29 1007.50 1006.68 1006.19 1005.80 1005.22 1005.61 1005.63 1006.38 1006.20 1006.92 1007.62 1008.00 1008.47
1024.44 1024.19 1023.93 1023.62 1023.29 1022.92 1022.47 1021.93 1021.30 1020.60 1019.86 1019.18 1018.50 1018.00 1017.58 1017.47 1017.63 1017.32 1016.73 1015.85 1015.73 1015.99 1016.00 1015.13 1012.81 1009.97 1008.46 1008.05 1008.25 1008.21 1008.07 1008.50 1009.11 1009.77 1009.93 1009.79 1009.35 1009.21 1009.58 1009.65 1008.29 1007.40 1006.57 1005.85 1005.54 1005.55 1006.20 1006.48 1007.06 1007.25 1007.50 1008.51 1008.94 1009.70
1024.08 1023.84 1023.57 1023.26 1022.96 1022.58 1022.12 1021.56 1020.87 1020.04 1019.11 1018.25 1017.42 1016.88 1016.54 1016.62 1016.94 1016.37 1015.13 1014.90 1015.70 1016.06 1015.88 1015.49 1013.53 1011.52 1009.50 1009.85 1009.92 1009.47 1009.54 1009.55 1009.60 1009.78 1009.72 1009.81 1009.48 1009.38 1009.76 1009.42 1008.48 1007.50 1006.54 1006.01 1005.76 1005.80 1006.20 1007.01 1007.70 1008.12 1008.23 1008.88 1009.86 1010.55
1023.71 1023.49 1023.23 1022.94 1022.59 1022.21 1021.78 1021.24 1020.51 1019.57 1018.45 1017.29 1016.36 1015.84 1016.04 1016.13 1016.19 1015.35 1014.80 1015.10 1015.42 1016.32 1016.06 1015.43 1014.38 1012.85 1011.12 1011.09 1011.03 1010.61 1010.72 1011.12 1010.66 1010.72 1010.30 1010.24 1010.10 1010.36 1010.43 1010.03 1009.13 1008.18 1007.20 1005.98 1005.91 1006.34 1006.90 1007.63 1008.50 1009.00 1009.39 1010.10 1010.44 1011.43
1023.39 1023.14 1022.90 1022.63 1022.33 1021.91 1021.47 1020.94 1020.26 1019.26 1017.90 1016.56 1015.87 1016.18 1016.35 1015.62 1015.18 1015.28 1015.31 1015.37 1015.48 1015.66 1015.70 1015.38 1013.98 1013.32 1012.42 1012.27 1012.05 1012.27 1012.17 1012.37 1012.25 1011.62 1010.98 1010.76 1010.91 1010.59 1010.35 1010.13 1009.29 1008.47 1007.99 1006.35 1006.86 1007.97 1008.56 1009.38 1009.98 1010.31 1010.49 1010.69 1010.82 1011.39
1023.00 1022.78 1022.54 1022.30 1022.00 1021.64 1021.26 1020.80 1020.22 1019.29 1017.90 1017.84 1018.12 1017.95 1016.86 1015.54 1015.27 1015.24 1015.37 1015.47 1015.23 1015.37 1014.87 1014.20 1013.73 1013.33 1012.35 1012.64 1012.85 1012.73 1012.85 1012.96 1013.04 1012.61 1012.13 1011.73 1011.46 1011.13 1010.53 1010.11 1009.43 1008.90 1008.81 1008.12 1007.82 1008.17 1009.11 1009.74 1010.60 1011.02 1011.34 1011.55 1011.44 1011.64
1022.59 1022.36 1022.14 1021.91 1021.61 1021.30 1020.97 1020.62 1020.29 1019.95 1019.71 1019.58 1019.73 1019.13 1017.98 1016.47 1015.74 1015.48 1015.05 1014.74 1014.69 1014.59 1014.00 1013.72 1013.42 1013.04 1012.44 1011.99 1012.65 1012.80 1013.06 1013.39 1013.20 1012.66 1012.81 1012.63 1012.32 1011.73 1011.06 1010.15 1009.89 1009.48 1009.74 1009.59 1009.20 1009.44 1009.99 1010.26 1010.70 1011.31 1011.78 1012.25 1012.67 1012.59
1022.18 1021.95 1021.69 1021.47 1021.18 1020.87 1020.60 1020.35 1020.12 1019.82 1019.30 1019.20 1019.19 1018.70 1017.64 1016.37 1015.69 1015.01 1014.51 1014.47 1014.30 1013.88 1013.55 1013.37 1013.57 1013.20 1012.58 1012.31 1012.56 1012.85 1013.14 1013.21 1012.72 1012.99 1013.21 1013.71 1013.03 1011.93 1011.26 1010.51 1010.70 1010.60 1010.28 1010.16 1010.24 1010.28 1010.59 1010.84 1011.08 1011.49 1011.94 1012.00 1012.44 1013.24
1021.79 1021.57 1021.25 1020.97 1020.64 1020.37 1020.14 1019.99 1019.83 1019.53 1019.60 1019.08 1018.31 1017.86 1016.94 1015.65 1014.56 1013.60 1013.41 1013.33 1013.11 1013.03 1013.13 1013.23 1013.52 1013.44 1013.27 1013.12 1012.80 1013.00 1012.80 1012.76 1013.25 1013.55 1013.87 1013.72 1013.08 1012.40 1011.77 1011.39 1011.26 1011.53 1011.31 1011.37 1011.38 1011.25 1011.32 1011.28 1011.43 1011.50 1011.63 1012.08 1012.70 1012.96
1021.43 1021.20 1020.90 1020.40 1020.09 1019.79 1019.70 1019.64 1019.60 1019.68 1019.43 1018.59 1017.37 1016.64 1015.43 1014.04 1013.16 1012.50 1012.15 1012.38 1012.35 1012.36 1012.76 1013.06 1013.34 1013.53 1013.52 1013.32 1012.96 1012.85 1012.87 1013.32 1013.96 1014.63 1014.30 1013.79 1013.47 1012.83 1012.15 1012.13 1012.03 1012.18 1012.27 1012.36 1012.31 1012.33 1012.38 1012.37 1012.58 1012.70 1012.68 1012.25 1012.26 1012.59
1021.20 1020.88 1020.44 1020.16 1019.96 1019.73 1019.51 1019.37 1019.11 1019.16 1018.60 1017.79 1016.48 1015.52 1014.28 1013.71 1013.03 1012.46 1012.16 1012.30 1011.94 1012.05 1012.22 1012.74 1013.28 1013.60 1013.43 1013.28 1013.15 1013.08 1013.36 1013.96 1014.27 1013.99 1013.58 1013.38 1013.17 1012.86 1012.51 1012.28 1012.09 1012.07 1012.41 1012.25 1012.29 1012.36 1012.51 1012.77 1012.86 1012.85 1012.63 1012.46 1012.48 1012.43
1021.15 1020.68 1020.31 1020.10 1019.80 1019.26 1018.87 1019.29 1018.87 1018.52 1017.79 1016.68 1015.47 1014.50 1014.30 1013.87 1013.21 1012.43 1011.90 1011.65 1011.40 1012.16 1012.68 1012.70 1013.15 1013.14 1012.90 1013.18 1013.25 1013.29 1013.52 1013.51 1013.37 1013.44 1013.24 1013.30 1013.36 1013.21 1013.01 1012.47 1012.17 1012.29 1012.53 1012.55 1012.64 1012.67 1012.79 1012.88 1012.95 1013.10 1013.10 1013.05 1013.07 1013.21
1020.72 1020.30 1020.32 1020.08 1019.67 1019.06 1018.81 1018.89 1018.50 1017.55 1016.71 1015.61 1015.09 1014.08 1013.65 1013.09 1012.53 1011.78 1011.05 1011.07 1011.40 1011.77 1012.14 1012.21 1012.42 1012.93 1013.16 1013.25 1013.36 1013.15 1013.06 1012.90 1012.86 1012.79 1013.00 1012.90 1012.78 1012.53 1012.55 1012.46 1012.32 1012.32 1012.30 1012.44 1012.45 1012.67 1012.87 1012.97 1013.06 1013.17 1013.09 1013.20 1013.19 1013.38
1020.05 1020.24 1020.24 1020.14 1020.03 1019.93 1019.12 1018.20 1017.75 1016.99 1015.57 1014.78 1013.95 1013.38 1012.96 1012.40 1011.71 1011.13 1010.85 1010.68 1010.73 1010.92 1011.48 1011.90 1012.50 1012.97 1012.82 1012.59 1012.63 1012.53 1012.49 1012.61 1012.61 1012.66 1012.74 1012.50 1012.29 1012.18 1012.16 1012.09 1012.13 1012.19 1012.28 1012.45 1012.63 1012.69 1012.86 1012.88 1012.78 1012.84 1012.91 1013.13 1013.43 1013.40
1020.06 1020.03 1019.93 1019.97 1020.08 1019.75 1018.82 1017.50 1016.53 1016.19 1015.21 1014.00 1013.31 1012.86 1012.56 1011.96 1011.17 1010.79 1010.72 1010.64 1010.78 1011.14 1011.64 1012.05 1012.14 1011.82 1011.75 1011.60 1011.67 1011.75 1011.72 1011.80 1012.15 1012.56 1012.63 1012.36 1012.01 1011.89 1011.90 1011.93 1012.03 1012.24 1012.17 1012.24 1012.50 1012.57 1012.75 1012.71 1012.56 1012.40 1012.59 1012.63 1012.91 1013.00
1019.89 1019.47 1019.43 1019.57 1019.75 1019.45 1018.55 1017.16 1016.06 1015.20 1014.50 1013.90 1012.80 1012.55 1012.02 1011.28 1011.06 1010.87 1010.73 1010.38 1010.95 1011.24 1011.41 1011.12 1010.95 1010.69 1010.70 1010.82 1010.75 1011.00 1011.21 1011.26 1011.68 1011.85 1011.89 1012.09 1011.92 1011.91 1012.01 1012.04 1012.05 1011.97 1011.86 1012.11 1012.40 1012.42 1012.31 1012.14 1012.12 1011.94 1012.17 1012.38 1012.20 1012.18
1019.26 1019.12 1019.31 1019.40 1019.15 1018.40 1017.77 1016.59 1015.93 1015.10 1014.67 1013.47 1012.75 1012.11 1011.92 1011.51 1011.06 1010.54 1010.05 1010.50 1010.67 1010.34 1010.10 1010.08 1010.12 1010.25 1010.49 1010.65 1010.73 1010.70 1010.71 1010.72 1010.86 1011.03 1011.29 1011.60 1011.89 1012.14 1012.01 1011.62 1011.69 1011.89 1011.56 1011.64 1011.82 1011.94 1011.87 1011.51 1011.59 1011.83 1011.89 1011.83 1011.82 1011.95
1019.07 1019.13 1018.97 1018.56 1018.37 1017.55 1016.64 1015.64 1015.49 1014.63 1014.13 1012.92 1012.14 1011.61 1011.10 1010.67 1010.01 1009.45 1009.82 1009.84 1009.55 1008.98 1008.80 1009.07 1009.28 1009.63 1010.12 1010.20 1010.39 1010.44 1010.41 1010.53 1010.69 1010.64 1010.80 1011.02 1011.04 1011.17 1011.20 1011.19 1011.20 1011.38 1011.64 1011.42 1011.20 1011.31 1011.43 1011.12 1011.26 1011.44 1011.52 1011.57 1011.61 1011.58
1019.04 1018.91 1018.30 1017.79 1017.51 1016.89 1015.94 1015.06 1014.40 1014.08 1013.40 1012.66 1012.01 1011.18 1010.34 1009.59 1009.32 1009.61 1009.83 1009.43 1009.02 1008.81 1008.76 1009.04 1009.28 1009.89 1010.31 1010.43 1010.66 1010.41 1010.14 1010.27 1010.39 1010.40 1010.38 1010.70 1010.98 1010.79 1010.52 1010.65 1010.57 1010.58 1010.50 1010.50 1010.78 1010.94 1011.03 1011.11 1011.05 1010.97 1011.01 1011.16 1011.24 1011.17
1018.85 1018.26 1017.83 1017.16 1016.62 1016.09 1015.20 1014.25 1013.75 1013.44 1012.59 1011.85 1011.45 1010.71 1009.79 1009.28 1009.57 1009.65 1009.47 1009.38 1009.08 1009.16 1008.71 1008.70 1009.40 1009.76 1009.93 1010.02 1009.97 1009.56 1009.28 1009.77 1010.16 1010.29 1009.99 1010.10 1010.05 1010.10 1010.03 1010.03 1009.82 1009.70 1009.74 1010.08 1010.45 1010.59 1010.60 1010.50 1010.53 1010.49 1010.48 1010.57 1010.56 1010.41
1017.68 1016.87 1016.60 1015.72 1015.32 1015.02 1014.15 1013.37 1012.78 1012.36 1011.75 1011.30 1010.57 1009.80 1009.39 1009.49 1009.68 1009.38 1008.80 1008.58 1008.59 1008.38 1008.42 1008.29 1008.52 1009.08 1009.30 1009.13 1009.23 1009.25 1008.93 1008.88 1009.41 1009.57 1009.29 1009.13 1009.26 1009.43 1009.68 1009.82 1009.73 1009.40 1009.13 1009.12 1009.45 1009.93 1010.02 1010.03 1010.10 1010.09 1010.14 1009.79 1009.76 1009.88
1016.50 1015.56 1014.94 1014.41 1014.07 1013.62 1013.28 1012.67 1012.16 1011.88 1011.21 1010.36 1009.81 1009.55 1009.62 1009.74 1009.62 1009.25 1008.59 1007.91 1007.85 1007.61 1007.07 1007.00 1007.35 1007.88 1008.02 1007.98 1007.85 1007.91 1007.86 1008.15 1008.25 1008.09 1007.95 1008.09 1008.10 1008.07 1008.46 1008.63 1008.86 1008.51 1008.18 1008.27 1008.40 1008.75 1009.20 1009.44 1009.39 1009.33 1009.21 1009.22 1009.31 1009.18
1015.39 1014.34 1014.01 1013.66 1013.60 1013.22 1013.01 1012.51 1012.03 1011.21 1010.61 1009.88 1009.44 1009.04 1009.19 1009.55 1009.96 1009.85 1009.39 1007.48 1007.19 1007.54 1006.57 1006.01 1006.07 1006.35 1006.73 1006.66 1006.65 1006.95 1007.25 1007.36 1007.43 1007.71 1007.62 1007.61 1007.63 1007.65 1007.37 1007.28 1007.41 1007.80 1007.73 1007.64 1007.75 1008.24 1008.52 1008.52 1008.62 1008.82 1008.83 1008.98 1008.96 1008.83
1014.45 1013.64 1013.37 1013.07 1012.93 1012.63 1012.22 1011.86 1011.39 1010.52 1009.64 1009.72 1009.61 1008.74 1008.52 1008.61 1008.09 1008.49 1008.48 1008.34 1007.92 1007.02 1006.32 1006.07 1005.83 1005.67 1005.77 1005.87 1005.98 1005.90 1006.27 1006.80 1007.50 1007.63 1007.54 1007.62 1007.67 1007.56 1007.48 1007.35 1007.27 1007.57 1007.69 1007.76 1007.84 1007.78 1007.88 1008.12 1008.32 1008.29 1008.34 1008.41 1008.53 1008.52
1013.43 1012.96 1012.87 1012.27 1012.14 1011.74 1011.20 1010.75 1010.38 1009.94 1009.68 1009.46 1009.16 1008.59 1007.98 1007.39 1006.53 1006.09 1006.51 1006.44 1006.42 1006.10 1005.56 1005.50 1005.32 1005.55 1005.62 1005.69 1005.79 1005.89 1005.65 1005.65 1005.91 1006.31 1006.58 1006.78 1006.64 1006.40 1006.89 1007.23 1007.43 1007.32 1007.37 1007.68 1007.91 1008.00 1007.93 1007.99 1008.15 1008.19 1008.22 1008.28 1008.27 1008.23
1012.17 1012.11 1012.04 1011.78 1011.31 1010.81 1010.43 1010.08 1009.65 1009.31 1008.94 1008.51 1008.12 1008.10 1007.43 1006.79 1006.02 1005.34 1005.32 1005.16 1005.19 1004.98 1004.87 1005.05 1004.73 1004.65 1004.85 1005.09 1005.12 1005.29 1005.24 1004.85 1004.87 1004.99 1004.95 1004.85 1005.29 1005.63 1005.84 1006.13 1006.26 1006.59 1006.88 1007.16 1007.51 1007.73 1007.83 1007.91 1008.02 1008.12 1008.18 1008.22 1008.09 1007.93
1011.49 1011.48 1011.33 1011.06 1010.55 1009.97 1009.76 1009.56 1009.02 1008.41 1007.86 1007.52 1007.08 1006.78 1006.50 1006.20 1005.99 1005.25 1004.31 1004.32 1004.49 1004.49 1004.20 1004.29 1004.24 1004.12 1003.90 1003.77 1003.68 1003.79 1003.82 1003.91 1004.05 1004.14 1004.23 1004.33 1004.69 1004.69 1004.89 1005.09 1005.48 1005.79 1006.21 1006.51 1006.60 1006.89 1007.18 1007.34 1007.54 1007.65 1007.71 1007.55 1007.46 1007.25
1010.55 1010.53 1010.62 1010.55 1009.79 1009.12 1008.46 1008.37 1007.94 1007.26 1006.72 1006.43 1005.92 1005.56 1005.58 1005.70 1005.50 1004.56 1003.29 1003.23 1003.63 1003.50 1003.49 1003.36 1003.17 1002.98 1003.04 1003.12 1002.99 1002.88 1002.96 1002.91 1003.05 1003.41 1003.66 1003.67 1003.92 1004.26 1004.49 1004.52 1004.72 1004.97 1005.40 1005.78 1006.01 1006.27 1006.23 1006.51 1006.72 1006.62 1006.71 1006.96 1007.05 1007.07
Wind_Speed
10 11 11 12 13 14 15 16 17 18 19 20 20 20 20 20 18 9 6 3 3 3 9 5 3 1 5 2 1 6 6 7 6 7 3 3 2 4 1 2 5 2 2 1 3 4 4 3 4 7 7 2 2 7
10 10 11 12 13 13 14 15 16 16 17 19 20 20 19 18 16 12 4 4 2 4 9 4 14 19 13 18 2 3 5 3 3 4 3 2 3 4 2 2 6 4 4 5 6 7 7 4 5 5 5 6 3 11
10 10 11 11 12 13 14 15 16 17 18 19 20 20 19 16 13 8 4 4 3 3 7 3 3 11 5 12 8 4 4 3 4 5 4 2 1 2 1 3 3 6 3 3 3 5 7 4 3 2 7 11 12 14
9 10 10 11 12 13 14 15 16 17 18 19 20 21 20 17 13 9 3 2 0 3 2 9 6 9 13 4 8 8 6 2 2 3 2 1 1 2 4 4 3 5 4 1 4 4 1 4 4 7 9 12 15 15
10 10 10 11 12 14 15 16 17 19 19 20 20 20 19 18 17 7 4 4 2 3 3 7 13 7 8 5 2 4 4 3 3 2 2 3 3 3 2 2 2 2 3 3 6 6 5 5 8 11 14 15 17 21
10 10 10 10 12 14 15 16 18 20 21 21 21 20 18 15 13 2 3 1 1 1 2 5 6 8 7 2 5 3 1 1 3 4 4 3 4 4 2 2 5 4 4 6 4 1 5 8 9 15 16 14 17 20
11 11 11 11 12 14 16 17 19 21 23 23 23 20 17 11 2 3 4 4 5 2 2 5 6 7 4 4 4 3 2 2 4 2 1 2 3 4 3 3 8 4 2 5 3 6 7 7 9 13 18 15 15 14
11 11 11 12 12 13 15 17 20 22 25 26 25 21 15 6 4 4 4 7 4 2 1 2 6 6 8 4 5 3 4 4 4 3 1 2 4 2 2 5 7 7 6 5 2 4 6 9 9 11 15 16 14 12
10 11 12 12 13 13 15 17 20 23 27 28 25 14 2 2 1 3 4 8 1 4 0 2 2 4 6 4 2 6 3 4 4 3 3 4 2 1 3 5 9 12 8 5 5 8 9 13 11 9 12 10 14 7
10 11 11 12 13 14 14 17 20 24 28 25 4 3 2 2 9 3 4 2 3 1 1 3 1 3 3 3 4 3 3 1 3 4 4 3 2 3 1 2 4 9 12 3 7 6 8 9 8 7 6 7 9 8
10 10 11 11 12 13 14 16 17 23 9 6 5 3 5 15 3 1 1 2 1 1 3 4 3 2 3 0 3 1 1 1 3 5 3 4 4 4 8 7 5 7 7 9 13 12 12 13 11 10 8 6 5 9
11 11 11 12 12 13 14 14 13 6 1 3 5 5 4 3 2 0 2 2 2 3 3 1 4 3 5 2 3 2 1 2 4 1 3 3 4 6 8 8 7 6 7 10 12 16 14 15 14 13 11 10 8 5
11 11 11 12 13 13 13 13 12 10 10 1 1 2 0 3 2 4 4 1 1 2 3 1 4 1 5 4 1 2 2 4 1 2 1 2 6 8 8 4 8 5 7 10 12 12 14 13 11 11 9 6 8 5
11 12 12 14 14 15 13 12 10 6 2 1 2 4 4 4 5 5 4 4 6 3 2 2 2 1 2 3 0 1 4 3 3 4 0 3 5 7 4 6 7 4 6 5 5 6 8 9 10 10 8 8 7 8
10 12 13 15 9 8 8 8 8 1 2 3 1 4 6 5 4 3 4 3 2 2 1 2 2 2 2 2 1 2 3 2 3 2 3 3 6 6 2 6 7 4 3 4 4 5 6 6 5 5 1 4 6 7
9 13 4 7 8 10 10 8 2 3 3 3 5 3 4 1 3 3 2 2 3 2 1 3 1 2 3 3 1 2 2 1 4 4 5 4 6 4 4 2 7 8 7 4 4 5 6 5 5 3 3 3 4 7
5 3 4 7 11 15 8 3 2 4 4 4 5 4 4 4 6 4 4 5 2 3 1 2 1 2 1 1 1 2 4 4 4 4 4 4 5 6 6 3 5 5 5 5 4 5 4 4 3 4 5 3 4 3
4 2 6 10 10 5 1 3 3 4 6 5 3 4 3 3 4 5 3 2 4 3 2 4 3 1 3 1 2 4 3 3 3 4 4 6 6 6 5 6 5 3 4 4 4 3 3 3 3 2 4 2 2 4
3 1 8 10 6 2 3 3 3 4 6 4 5 4 4 4 5 4 2 2 3 3 4 2 2 3 4 4 4 4 3 3 4 4 3 6 5 5 6 4 3 3 3 2 4 4 4 6 4 3 3 3 3 4
10 12 13 10 3 2 3 4 3 3 4 4 3 4 3 4 4 2 2 2 3 3 2 3 5 5 5 4 4 4 4 2 4 1 3 4 3 0 1 2 2 1 2 2 2 3 2 2 3 4 4 5 4 5
3 4 4 4 3 4 3 4 4 4 4 3 4 3 4 3 3 3 4 1 3 3 3 5 4 4 4 3 4 3 2 4 5 5 5 3 3 1 1 3 3 1 1 3 2 3 5 4 3 3 2 3 3 5
2 3 2 3 3 4 4 4 4 4 3 5 4 3 3 3 3 4 2 2 4 5 5 4 4 5 4 4 3 3 5 3 3 2 3 3 3 1 3 4 3 4 5 4 4 4 5 5 3 3 3 5 4 4
3 2 2 4 4 3 7 1 3 4 3 4 3 2 3 3 5 1 2 4 5 5 5 4 4 4 5 4 3 4 4 3 3 3 4 4 3 3 2 3 3 4 4 5 4 4 5 5 5 4 3 4 3 3
2 2 4 4 5 4 3 4 3 2 4 3 3 5 4 4 0 2 3 3 3 2 3 3 5 4 3 1 2 4 5 3 2 2 4 5 3 4 5 5 4 4 5 4 3 4 3 4 5 3 3 4 4 5
3 4 4 5 3 3 4 3 4 2 4 4 2 4 4 1 1 2 4 3 2 3 4 5 4 4 5 5 4 5 6 5 4 3 3 5 5 2 4 5 5 6 4 4 3 4 4 5 4 5 5 4 6 6
5 5 7 7 4 4 4 3 4 4 4 3 4 4 2 1 2 5 3 4 5 5 5 6 7 5 5 6 5 4 6 5 4 2 5 5 3 4 5 4 4 5 5 6 5 6 6 5 5 8 6 9 7 5
4 5 5 4 3 2 3 3 4 3 4 3 3 1 2 1 4 3 4 2 1 4 8 7 6 7 7 6 6 5 5 5 7 7 5 4 5 6 6 6 8 6 4 7 7 7 7 7 6 5 6 5 6 4
4 4 5 5 3 3 3 2 3 4 4 4 2 2 2 1 1 1 4 7 8 9 5 6 6 6 5 5 7 5 5 5 5 3 2 1 2 3 4 5 4 8 3 1 6 6 6 6 5 4 5 4 2 3
4 3 2 4 4 5 5 5 4 4 1 3 4 3 2 4 5 6 8 11 9 9 3 3 4 3 2 2 5 6 6 6 7 8 9 5 4 3 3 4 5 4 4 3 2 5 7 4 5 5 4 2 3 3
5 4 3 4 6 5 5 5 4 4 4 4 3 7 6 4 5 4 3 5 3 4 3 3 3 2 3 3 3 4 5 6 9 8 8 7 7 5 6 5 5 5 4 4 4 3 3 3 1 1 2 3 4 4
3 4 4 5 7 5 5 6 7 8 8 8 8 8 10 7 5 3 5 6 5 4 1 3 5 5 5 5 5 3 4 3 6 10 10 8 6 6 9 8 6 6 6 6 5 5 4 3 4 5 6 7 9 8
4 4 2 3 5 6 6 6 6 5 5 5 6 4 4 3 5 5 4 3 2 3 6 5 4 5 8 9 8 5 10 5 5 5 8 6 6 9 9 7 6 6 7 8 8 7 8 9 6 8 7 10 10 9
4 3 3 4 4 4 5 5 4 4 6 8 8 7 7 4 7 6 4 3 6 7 6 5 5 5 6 9 9 7 9 7 8 7 12 12 11 9 6 5 5 6 8 6 7 8 10 11 11 10 9 6 5 8
Wind_Direction
323 324 327 333 337 339 339 339 339 338 339 340 342 343 345 350 354 2 277 260 91 272 277 250 297 81 346 356 38 288 15 351 7 40 53 276 164 251 226 257 303 158 76 171 109 88 261 310 335 104 220 60 206 98
317 319 322 326 330 332 332 333 332 332 333 336 336 336 338 343 352 356 298 314 305 187 247 251 263 265 222 222 144 312 188 258 236 49 355 333 333 20 64 335 338 20 175 185 161 208 229 279 160 200 193 133 114 123
312 317 319 323 324 326 328 329 328 328 328 329 331 332 332 335 341 349 272 291 347 312 305 341 287 295 206 204 175 148 301 232 336 178 187 243 322 113 49 273 348 312 149 120 90 250 228 266 261 101 89 118 118 125
307 309 312 317 320 323 323 323 323 322 322 323 325 326 325 326 328 324 257 262 195 272 298 285 330 320 302 272 185 186 194 13 126 71 127 173 214 156 220 221 146 217 353 282 301 41 65 242 272 137 118 110 102 107
301 302 309 314 317 319 320 320 320 320 320 320 318 317 318 319 321 299 212 243 198 132 255 284 311 264 292 288 217 16 81 94 71 8 42 258 236 56 326 57 276 252 219 123 231 233 173 207 148 141 121 116 112 110
303 303 306 309 313 316 318 320 321 319 318 316 313 311 310 314 327 347 27 294 300 104 61 317 285 301 322 51 38 318 233 153 123 152 221 265 249 108 102 193 260 245 254 187 252 208 205 118 130 126 115 122 118 115
301 303 305 306 309 315 317 319 320 317 315 313 309 305 299 296 264 170 196 237 23 17 82 310 306 279 282 31 336 322 348 227 141 191 231 190 296 97 134 177 252 273 165 50 60 76 57 153 143 124 117 114 107 107
301 301 305 306 307 310 313 316 317 317 315 313 310 306 298 272 246 307 255 243 144 91 100 281 277 351 352 358 337 355 360 10 355 244 349 184 330 75 263 291 310 286 173 127 61 191 155 107 107 118 122 124 117 111
298 302 304 305 304 304 311 316 318 318 316 313 312 309 94 66 26 250 134 124 98 128 183 338 278 292 347 325 332 354 42 4 312 37 298 83 259 225 255 268 10 327 269 194 89 102 126 127 122 108 107 106 111 122
294 299 303 308 313 317 315 319 322 321 317 311 12 33 334 242 323 131 18 34 14 282 17 229 271 291 58 355 308 13 13 350 353 268 295 70 278 267 236 286 31 349 309 66 87 73 83 65 68 74 99 138 145 157
290 295 300 305 310 312 316 319 325 326 348 16 5 323 297 299 22 59 260 147 220 255 219 239 197 245 293 20 241 163 219 345 15 281 48 334 311 297 321 353 360 52 27 55 94 95 101 109 107 89 57 55 97 115
287 291 297 300 304 308 311 316 327 348 353 248 283 285 289 320 24 33 247 301 165 229 283 209 256 217 281 145 90 314 164 45 256 216 51 313 304 325 324 332 33 73 96 90 96 107 110 108 110 98 83 65 33 36
284 288 294 296 298 301 303 307 313 297 300 182 212 260 119 280 27 200 211 284 286 254 251 331 315 273 340 34 7 57 39 248 56 45 183 21 293 317 330 357 83 58 88 112 114 116 116 114 103 108 111 101 125 233
283 288 292 292 292 290 290 297 308 335 315 265 203 310 173 242 243 210 171 188 231 177 249 197 245 146 286 347 253 122 245 57 333 21 3 275 283 316 10 57 67 57 45 50 63 93 121 130 130 128 139 154 197 206
284 290 292 292 295 312 299 301 303 299 270 266 245 240 233 237 281 228 171 138 263 174 184 12 20 100 291 325 284 4 342 9 48 355 259 283 304 315 70 114 84 49 81 104 102 91 87 91 126 140 230 206 151 137
300 298 260 266 326 319 304 310 268 189 254 242 250 282 284 311 338 342 137 216 220 203 81 71 88 45 280 185 319 338 61 106 237 208 233 266 271 298 344 215 151 150 188 171 140 131 117 110 108 84 49 53 158 149
281 247 12 349 324 303 286 174 249 222 252 251 251 233 233 251 244 248 202 222 156 80 221 152 15 252 282 65 83 127 203 216 234 256 237 254 274 312 301 320 154 159 163 142 123 121 121 124 112 82 71 18 70 27
240 158 6 349 338 309 189 206 253 240 253 244 240 260 256 240 273 289 255 206 110 165 119 214 142 110 238 320 282 254 258 277 213 230 241 252 252 246 263 261 220 212 170 181 181 163 130 131 135 166 173 216 30 260
194 335 325 327 341 302 284 226 204 258 247 246 253 259 233 245 253 245 254 200 190 160 105 56 124 188 232 217 215 240 229 206 216 233 245 271 282 262 258 256 230 187 174 206 193 161 188 194 204 207 205 181 228 258
251 284 283 284 293 266 266 259 184 248 272 260 278 272 221 222 240 250 284 260 171 128 125 180 213 217 191 216 198 204 215 168 140 161 281 283 259 209 239 197 190 210 166 145 144 165 196 219 234 229 215 228 196 243
215 241 228 159 215 224 268 284 266 224 281 268 279 316 265 299 284 260 265 186 90 173 212 217 226 218 185 173 156 154 215 141 187 182 199 230 243 208 342 274 166 107 195 151 201 246 234 223 215 186 166 230 230 236
232 183 194 198 256 226 243 229 234 288 275 256 307 198 240 270 264 250 197 104 208 217 193 188 193 174 168 163 185 184 199 160 167 136 90 127 128 195 243 234 125 182 236 207 197 203 218 235 217 222 221 240 243 253
311 153 235 216 234 229 258 217 228 246 253 261 310 256 250 247 226 147 207 204 227 216 191 176 173 145 155 183 189 232 215 194 253 223 190 206 215 208 230 242 200 163 203 258 228 204 203 215 208 197 243 261 239 263
219 227 220 219 185 252 272 242 220 255 279 252 276 306 276 222 139 107 230 225 233 337 82 102 121 110 46 7 234 238 247 192 210 227 195 163 207 257 232 226 220 205 204 199 186 201 200 204 235 247 258 245 254 250
185 239 151 249 256 236 243 244 201 237 254 236 242 256 263 46 87 238 227 239 178 182 194 152 137 184 170 218 242 248 249 181 182 201 241 196 214 242 234 233 227 226 199 179 183 191 215 214 221 255 258 257 252 241
219 211 187 197 211 207 219 242 204 214 229 232 248 269 41 89 223 251 228 206 205 175 192 193 188 189 220 208 208 231 240 194 150 188 265 209 204 164 192 213 249 278 204 199 175 194 219 228 232 242 242 241 260 230
231 221 204 225 244 259 277 259 250 240 264 263 247 236 107 233 254 305 295 304 192 231 197 200 175 192 199 216 211 218 204 173 183 204 221 208 214 198 172 188 217 232 238 201 191 182 186 213 240 268 238 212 235 242
255 244 209 203 210 217 233 261 250 237 225 247 271 243 199 96 284 219 296 296 291 305 260 207 199 192 194 199 194 188 211 209 216 227 293 264 226 217 206 156 167 177 126 100 165 148 178 177 163 128 126 142 227 252
239 250 246 250 215 208 214 210 228 253 196 32 331 288 232 205 205 175 209 228 249 269 258 246 246 213 218 184 215 195 178 158 150 186 215 240 284 281 220 196 158 155 162 189 116 151 176 161 160 168 179 193 237 255
232 203 247 217 207 223 214 211 249 277 296 279 257 287 289 272 253 215 226 257 237 246 240 202 173 150 251 230 234 279 252 197 188 180 192 215 228 199 177 202 186 189 192 181 213 190 103 125 160 331 324 305 293 298
232 178 213 234 256 243 241 256 258 258 266 271 264 258 261 260 287 256 214 236 237 266 46 199 206 225 161 229 243 207 274 271 201 186 209 202 171 178 188 197 194 176 193 194 198 209 215 207 220 246 260 265 273 271
198 211 252 279 260 249 257 263 258 252 260 254 265 255 280 306 280 274 236 191 249 269 250 227 215 241 204 211 221 205 194 229 218 186 166 169 173 188 200 181 178 178 174 189 196 202 212 211 218 230 236 246 253 266
189 201 245 265 252 236 237 192 238 248 237 245 253 243 245 220 232 252 301 180 214 231 226 242 250 248 219 223 231 228 204 203 205 197 196 174 180 183 173 178 181 172 174 182 188 200 211 203 222 237 232 231 217 159